Location: Biltmore Gardens
(41.6070°N, 83.4666°W)
Time: 04:46:00
(UTC+00:00)

S-56A Canister/Altair - All Passes

Search period start: 14 April 2021 00:00
Search period end: 24 April 2021 00:00
Orbit: 632 x 2500 km, 38.9° (Epoch: 12 April)

Date Brightness Start Highest point End Pass type
(mag) Time Alt. Az. Time Alt. Az. Time Alt. Az.
14 Apr - 05:06:22 10° SSW 05:10:37 18° SSE 05:14:07 10° ESE night (unlit)
14 Apr - 07:08:48 10° WSW 07:14:03 45° SSE 07:18:21 10° E visible
14 Apr - 09:12:49 10° W 09:17:24 62° S 09:21:52 10° ESE visible
14 Apr - 11:16:39 10° W 11:20:39 33° SSW 11:25:17 10° SE daylight
15 Apr - 04:33:44 10° S 04:37:59 17° SSE 04:41:29 10° ESE night (unlit)
15 Apr - 06:35:56 10° SW 06:41:32 42° SSE 06:45:55 10° E visible
15 Apr - 08:40:08 10° W 08:44:55 63° S 08:49:19 10° E visible
15 Apr - 10:44:06 10° W 10:48:10 36° SSW 10:52:39 10° SE daylight
15 Apr - 12:50:03 10° SW 12:51:22 11° SSW 12:52:45 10° SSW daylight
16 Apr - 04:01:05 10° S 04:05:18 16° SSE 04:08:49 10° ESE night (unlit)
16 Apr - 06:03:00 10° SW 06:08:59 40° SSE 06:13:31 10° E night (unlit)
16 Apr - 08:07:20 10° W 08:12:26 64° S 08:16:49 10° E visible
16 Apr - 10:11:31 10° W 10:15:42 40° SSW 10:20:04 10° SE visible
16 Apr - 12:16:54 10° SW 12:18:49 12° SSW 12:20:51 10° S daylight
17 Apr - 03:28:28 10° S 03:32:36 15° SSE 03:36:04 10° ESE night (unlit)
17 Apr - 05:30:00 10° SW 05:36:24 38° SSE 05:41:06 10° E night (unlit)
17 Apr - 07:34:28 10° WSW 07:39:56 64° S 07:44:22 10° E visible
17 Apr - 09:38:52 10° W 09:43:15 44° SSW 09:47:32 10° SE visible
17 Apr - 11:43:57 10° WSW 11:46:17 14° SSW 11:48:47 10° S daylight
18 Apr - 02:55:55 10° S 02:59:51 14° SSE 03:03:13 10° ESE visible
18 Apr - 04:56:56 10° SW 05:03:47 36° SSE 05:08:43 10° E night (unlit)
18 Apr - 07:01:30 10° WSW 07:07:25 63° S 07:11:58 10° E visible
18 Apr - 09:06:09 10° W 09:10:47 48° SSW 09:15:03 10° ESE visible
18 Apr - 11:11:04 10° WSW 11:13:47 16° SSW 11:16:38 10° S daylight
19 Apr - 02:23:29 10° S 02:27:04 13° SE 02:30:12 10° ESE visible
19 Apr - 04:23:49 10° SW 04:31:07 35° SSE 04:36:18 10° E night (unlit)
19 Apr - 06:28:26 10° WSW 06:34:52 62° S 06:39:35 10° E visible
19 Apr - 08:33:21 10° W 08:38:19 53° SSW 08:42:37 10° ESE visible
19 Apr - 10:38:13 10° WSW 10:41:18 18° SSW 10:44:26 10° SSE daylight
20 Apr - 01:51:15 10° SSE 01:54:14 12° SE 01:56:55 10° SE visible
20 Apr - 03:50:41 10° SW 03:58:24 33° SSE 04:03:53 10° E visible
20 Apr - 05:55:17 10° WSW 06:02:16 61° S 06:07:14 10° E night (unlit)
20 Apr - 08:00:27 10° W 08:05:50 58° S 08:10:13 10° ESE visible
20 Apr - 10:05:22 10° W 10:08:50 21° SSW 10:12:15 10° SSE visible
21 Apr - 01:19:32 10° SSE 01:21:22 11° SE 01:23:06 10° SE visible
21 Apr - 03:17:31 10° SSW 03:25:38 32° SSE 03:31:25 10° E visible
21 Apr - 05:22:03 10° WSW 05:29:39 60° S 05:34:53 10° E night (unlit)
21 Apr - 07:27:28 10° W 07:33:19 62° S 07:37:51 10° ESE visible
21 Apr - 09:32:30 10° W 09:36:24 25° SSW 09:40:02 10° SSE visible
22 Apr - 02:44:20 10° SSW 02:52:49 30° SSE 02:58:55 10° E visible
22 Apr - 04:48:44 10° WSW 04:56:59 58° SSE 05:02:32 10° E visible
22 Apr - 06:54:22 10° W 07:00:48 66° S 07:05:29 10° ESE visible
22 Apr - 08:59:36 10° W 09:03:58 29° SSW 09:07:48 10° SE visible
23 Apr - 02:11:09 10° SSW 02:19:56 29° SSE 02:26:21 10° E visible
23 Apr - 04:15:21 10° WSW 04:24:15 56° SSE 04:30:10 10° E visible
23 Apr - 06:21:12 10° W 06:28:13 69° S 06:33:10 10° ESE night (unlit)
23 Apr - 08:26:38 10° W 08:31:31 34° SSW 08:35:35 10° SE visible
